Regional Weather Roundup
Issued by NWS Upton, NY

Current Version | Previous Version | Text Only | Print | Product List | Glossary On
Versions: 1 2 3 4 5 6 7 8 9 10 11 12 13 14 15 16 17 18 19 20 21 22 23 24 25 26 27 28 29 30 31 32 33 34 35 36 37 38 39 40 41 42 43 44 45 46 47 48 49 50
000
ASUS41 KOKX 210405
RWROKX

REGIONAL WEATHER ROUNDUP
NATIONAL WEATHER SERVICE NEW YORK NY
1200 AM EDT SUN SEP 21 2014

NOTE: "FAIR" INDICATES FEW OR NO CLOUDS BELOW 12,000 FEET WITH NO
SIGNIFICANT WEATHER AND/OR OBSTRUCTIONS TO VISIBILITY.

NYZ071-072-176-178-NJZ106-104-210500-
NEW YORK CITY METRO AREA


CITY           SKY/WX    TMP DP  RH WIND       PRES   REMARKS
CENTRAL PARK   CLOUDY    70  62  76 CALM      30.09S
LAGUARDIA APRT CLOUDY    70  63  78 S5        30.06S
KENNEDY INTL   CLOUDY    70  63  78 SE5       30.07F
NEWARK/LIBERTY CLOUDY    70  65  84 CALM      30.06F
BRNX BOT. GARD   N/A     68  63  83 E2        30.09F
TETERBORO      CLOUDY    69  63  81 CALM      30.05F
$$

NYZ177-179-078>081-210500-
LONG ISLAND NEW YORK

CITY           SKY/WX    TMP DP  RH WIND       PRES   REMARKS
FARMINGDALE    LGT RAIN  68  64  87 S7        30.08S
ISLIP          CLOUDY    67  64  90 SE6       30.06F
SHIRLEY        CLOUDY    67  64  90 SE3       30.08F
WESTHAMPTON    CLOUDY    69  63  81 CALM      30.09F
MONTAUK POINT    N/A     69  65  86 CALM      30.10F
$$

NYZ052-065-067-210500-
HUDSON VALLEY

CITY           SKY/WX    TMP DP  RH WIND       PRES   REMARKS
WHITE PLAINS   LGT RAIN  65  62  90 CALM      30.08S
NEWBURGH       CLEAR     64  61  88 S6        30.09S
MONTGOMERY     PTCLDY    55  53  93 CALM      30.08S FOG
POUGHKEEPSIE   CLEAR     61  59  93 SE3       30.06F
ALBANY         CLEAR     65  56  72 S16G23    30.02S
$$

NJZ001-105-106-008-010-013-015-019>022-104-210500-
NEW JERSEY

CITY           SKY/WX    TMP DP  RH WIND       PRES   REMARKS
NEWARK/LIBERTY CLOUDY    70  65  84 CALM      30.06F
TETERBORO      CLOUDY    69  63  81 CALM      30.05F
CALDWELL       CLOUDY    65  60  84 CALM      30.07F
MORRISTOWN     CLOUDY    63  59  88 CALM      30.07F
SOMERVILLE     CLOUDY    63  59  87 CALM      30.05F
LINDEN         CLOUDY    73  67  81 CALM      30.07F
SUSSEX         MOCLDY    58  55  90 CALM      30.09R
ANDOVER          N/A     60  58  92 CALM      30.09R
TRENTON        CLOUDY    65  61  87 CALM      30.05F
MILLVILLE      CLOUDY    68  64  87 N3        30.04F
ATLANTIC CITY  CLOUDY    70  68  93 CALM      30.04F
WRIGHTSTOWN    CLOUDY    66  64  94 CALM      30.03F
TOMS RIVER     CLOUDY    66  64  94 CALM      30.05F
BELMAR         CLOUDY    68  63  83 SE5       30.05F
$$

PAZ047>061-062-071-210500-
EASTERN PENNSYLVANIA

CITY           SKY/WX    TMP DP  RH WIND       PRES   REMARKS
PHILADELPHIA   MOCLDY    69  63  81 CALM      30.06S
ALLENTOWN      MOCLDY    63  58  83 NW3       30.08S
SCRANTON       CLEAR     64  57  78 VRB3      30.07S
$$

CTZ002-004>006-009-010-012-RIZ004-006-007-MAZ004-011-015-210500-
SOUTHERN NEW ENGLAND
 IN CT

CITY           SKY/WX    TMP DP  RH WIND       PRES   REMARKS
BRADLEY INTL   MOCLDY    61  56  83 S3        30.08F
HARTFORD       MOCLDY    60  57  89 SW6       30.09F
DANBURY        CLOUDY    62  59  90 CALM      30.10S
WTRBRY/OXFORD  CLOUDY    63  57  82 CALM      30.11S
BRIDGEPORT     CLOUDY    69  64  84 SE7       30.08F
MERIDEN        CLOUDY    59  57  93 CALM      30.09F
NEW HAVEN      LGT RAIN  69  63  81 S9        30.08F
CHESTER        DRIZZLE   63  61  94 CALM      30.10F
GROTON         CLOUDY    64  61  90 CALM      30.09F
WILLIMANTIC    MOCLDY    56  53  90 N3        30.10F

 IN RI

CITY           SKY/WX    TMP DP  RH WIND       PRES   REMARKS
PROVIDENCE     MOCLDY    60  56  86 CALM      30.11F
BLOCK ISLAND   CLOUDY    70  63  78 S10       30.10F
WESTERLY       CLOUDY    63  59  87 CALM      30.11F

 IN MA

CITY           SKY/WX    TMP DP  RH WIND       PRES   REMARKS
BOSTON         PTCLDY    62  56  80 S10       30.10F
WORCESTER      CLEAR     58  55  90 SW13      30.11F
WESTFIELD      PTCLDY    55  53  93 S5        30.08F
PROVINCETOWN   CLOUDY    63  57  82 S9        30.12F
NANTUCKET      MOCLDY    63  60  90 SE9       30.12F
$$

ANZ330-335-338-340-345-350-353-355-210500-
COASTAL MARINE OBSERVATIONS


STATION/POSITION TIME  SKY/WX   TEMP    WIND        PRES    VSBY  WAVE
                                AIR SEA DIR/SP/G                  HT/PER
                 (UTC)          (F)     (DEG/KT/KT) (MB)    (MI)  (FT/S)
NY HARB ENTRANCE 0400            69 70  140/  8/ 14 1018.1          4/ 9
4S FIRE IS       0400               70                N/A           4/ 9
20S FIRE ISLAND  0400            70 69  110/  4/  6 1018.5          4/ 8
23SW MTP         0400                                 N/A           4/ 8
HUDSON CANYON    0400            74 72  140/ 16/ 19 1017.2          5/ 6
EXECUTION ROCKS  0400            69 70   50/  2/  4   N/A
WESTERN LI SOUND 0400            69     110/  4/  6   N/A           0
CENTRAL LI SOUND 0300            69 70  150/  8/ 12   N/A           1
EASTERN LI SOUND 0300            68 68   80/  4/  6   N/A
ROBBINS REEF     0400            70     170/  4/  5 1016.8
$$


>>>>>>>>>>>>>>>>>>>>>>>>>>>> KEY <<<<<<<<<<<<<<<<<<<<<<<<<<<
>                                                          <
>     SKY/WX - SKY CONDITION/PRESENT WEATHER               <
>     TMP    - TEMPERATURE IN FAHRENHEIT                   <
>     DP     - DEWPOINT IN FAHRENHEIT                      <
>     RH     - RELATIVE HUMIDITY IN PERCENT                <
>     WIND   - DIRECTION AND SPEED IN MPH                  <
>     PRES   - MEAN SEA LEVEL PRESSURE IN INCHES OF HG     <
>     WCI    - WIND CHILL INDEX                            <
>     VSB    - VISIBILITY IN MILES                         <
>     HX     - HEAT INDEX                                  <
>     TC     - TEMPERATURE IN CELSIUS                      <
>     VRB    - VARIABLE WIND DIRECTION                     <
>                                                          <
>>>>>>>>>>>>>>>>>>>>>>>>>>>> KEY <<<<<<<<<<<<<<<<<<<<<<<<<<<




USA.gov is the U.S. government's official web portal to all federal, state and local government web resources and services.